Tracking 29892 objects as of 21-Nov-2024
HD Live streaming from Space Station
objects crossing your sky now

IRIDIUM 33 DEB

Track IRIDIUM 33 DEB now!
10-day predictions


NORAD ID: 35809
Int'l Code: 1997-051ST
Perigee: 673.2 km
Apogee: 696.2 km
Inclination: 86.3 °
Period: 98.3 minutes
Semi major axis: 7055 km
RCS: 0.0086 m2 (small)
Launch date: September 14, 1997
Source: United States (US)
Launch site: TYURATAM MISSILE AND SPACE COMPLEX (TTMTR)

Note: This is SATELLITE DEBRIS
Your satellite tracking list
Your tracking list is empty




NASA's NSSDC Master Catalog

Two Line Element Set (TLE):
1 35809U 97051ST  24322.79158532  .00011019  00000-0  20550-2 0  9996
2 35809  86.3321 151.4093 0016287 149.7582 210.4574 14.64838684810760
Source of the keplerian elements: AFSPC